Brownwood, TX

4:33 AM CDT on October 22, 2017 (GMT -0500)
Brownwood Regional

Weather History for KBWD - November, 2013

Change the Weather History Date:

Tuesday, November 26, 2013

  Actual Average (KABI) Record (KABI)
Temperature  
Mean Temperature 42 °F -  
Max Temperature 50 °F 60 °F 86 °F (1965)
Min Temperature 33 °F 38 °F 16 °F (1993)
Degree Days  
Heating Degree Days 24    
Moisture  
Dew Point 29 °F    
Average Humidity 67    
Maximum Humidity 93    
Minimum Humidity 37    
Precipitation  
Precipitation 0.00 in - - ()
Sea Level Pressure  
Sea Level Pressure 30.27 in    
Wind  
Wind Speed 13 mph (NNW)    
Max Wind Speed 28 mph    
Max Gust Speed 34 mph    
Visibility 10 miles    
Events Rain    
Averages and records for this station are not official NWS values.
T = Trace of Precipitation, MM = Missing Value Source: NWS Daily Summary

Daily Weather History Graph

Daily Weather History Graph

Search for Another Location

Airport or City:

Trip Planner

Search our weather history database for the weather conditions in past years. The results will help you decide how hot, cold, wet, or windy it might be!

Date:

Astronomy

Nov. 26, 2013 Rise Set
Actual Time 7:14 AM CST 5:32 PM CST
Civil Twilight 6:47 AM CST 5:58 PM CST
Nautical Twilight 6:17 AM CST 6:28 PM CST
Astronomical Twilight 5:48 AM CST 6:57 PM CST
Moon 12:42 AM CST (11/26) 1:18 PM CST (11/26)
Length of Visible Light 11h 11m
Length of Day
10h 18m
Last Quarter, 41% of the Moon is Illuminated
Nov 26
Last Quarter
Dec 2
New
Dec 9
First Quarter
Dec 17
Full
Dec 25
Last Quarter

Hourly Weather History & Observations

Time (CST) Temp. Windchill Dew Point Humidity Pressure Visibility Wind Dir Wind Speed Gust Speed Precip Events Conditions
12:15 AM 35.6 °F 28.0 °F 32.0 °F 87% 30.20 in 10.0 mi North 10.4 mph 17.3 mph N/A   Overcast
12:35 AM 35.6 °F 28.0 °F 30.2 °F 81% 30.20 in 10.0 mi North 10.4 mph 17.3 mph N/A   Overcast
12:55 AM 35.6 °F 27.5 °F 30.2 °F 81% 30.19 in 10.0 mi North 11.5 mph 18.4 mph N/A   Overcast
1:15 AM 35.6 °F 27.1 °F 30.2 °F 81% 30.19 in 10.0 mi North 12.7 mph - N/A   Overcast
1:35 AM 35.6 °F 27.5 °F 30.2 °F 81% 30.18 in 10.0 mi North 11.5 mph - N/A   Overcast
1:55 AM 35.6 °F 27.5 °F 30.2 °F 81% 30.20 in 10.0 mi North 11.5 mph 17.3 mph N/A   Overcast
2:15 AM 35.6 °F 26.6 °F 32.0 °F 87% 30.19 in 7.0 mi North 13.8 mph - N/A Rain Light Rain
2:35 AM 35.6 °F 27.1 °F 32.0 °F 87% 30.19 in 10.0 mi NNW 12.7 mph - N/A   Overcast
2:55 AM 33.8 °F 25.8 °F 32.0 °F 93% 30.20 in 10.0 mi North 10.4 mph - N/A   Overcast
3:15 AM 35.6 °F 28.0 °F 32.0 °F 87% 30.20 in 10.0 mi North 10.4 mph - N/A   Overcast
3:35 AM 35.6 °F 26.6 °F 32.0 °F 87% 30.21 in 10.0 mi NNW 13.8 mph - N/A   Overcast
3:55 AM 35.6 °F 25.9 °F 30.2 °F 81% 30.21 in 10.0 mi NNW 16.1 mph - N/A   Overcast
4:15 AM 35.6 °F 25.9 °F 30.2 °F 81% 30.21 in 10.0 mi NNW 16.1 mph 24.2 mph N/A   Overcast
4:35 AM 33.8 °F 23.9 °F 30.2 °F 87% 30.21 in 10.0 mi NNW 15.0 mph - N/A   Mostly Cloudy
4:55 AM 33.8 °F 24.3 °F 32.0 °F 93% 30.20 in 7.0 mi NNW 13.8 mph 19.6 mph N/A Rain Light Rain
5:15 AM 33.8 °F 24.8 °F 32.0 °F 93% 30.21 in 3.0 mi North 12.7 mph 17.3 mph N/A   Partly Cloudy
5:35 AM 33.8 °F 24.8 °F 32.0 °F 93% 30.21 in 10.0 mi NNW 12.7 mph - N/A   Mostly Cloudy
5:55 AM 33.8 °F 25.8 °F 30.2 °F 87% 30.22 in 10.0 mi NNW 10.4 mph - N/A   Overcast
6:15 AM 33.8 °F 24.8 °F 32.0 °F 93% 30.23 in 10.0 mi NNW 12.7 mph - N/A   Overcast
6:35 AM 33.8 °F 23.9 °F 32.0 °F 93% 30.24 in 10.0 mi NW 15.0 mph - N/A   Overcast
6:55 AM 33.8 °F 24.3 °F 32.0 °F 93% 30.24 in 10.0 mi NW 13.8 mph 17.3 mph N/A   Mostly Cloudy
7:15 AM 33.8 °F 25.8 °F 32.0 °F 93% 30.25 in 10.0 mi NNW 10.4 mph - N/A   Scattered Clouds
7:35 AM 33.8 °F 24.3 °F 32.0 °F 93% 30.25 in 10.0 mi NNW 13.8 mph - N/A   Mostly Cloudy
7:55 AM 35.6 °F 27.1 °F 32.0 °F 87% 30.26 in 7.0 mi NNW 12.7 mph 18.4 mph N/A   Scattered Clouds
8:15 AM 35.6 °F 27.1 °F 32.0 °F 87% 30.27 in 10.0 mi NNW 12.7 mph - N/A   Mostly Cloudy
8:35 AM 35.6 °F 26.6 °F 32.0 °F 87% 30.28 in 10.0 mi NNW 13.8 mph 19.6 mph N/A   Unknown
8:55 AM 35.6 °F 26.6 °F 32.0 °F 87% 30.28 in 10.0 mi NNW 13.8 mph 21.9 mph N/A   Unknown
9:15 AM 35.6 °F 25.2 °F 30.2 °F 81% 30.29 in 10.0 mi NNW 18.4 mph 23.0 mph N/A   Unknown
9:35 AM 37.4 °F 28.5 °F 30.2 °F 75% 30.28 in 10.0 mi NNW 15.0 mph - N/A   Unknown
9:55 AM 37.4 °F 27.8 °F 30.2 °F 75% 30.29 in 10.0 mi NNW 17.3 mph 23.0 mph N/A   Unknown
10:15 AM 39.2 °F 29.8 °F 30.2 °F 70% 30.29 in 10.0 mi NNW 18.4 mph 25.3 mph N/A   Unknown
10:35 AM 39.2 °F 29.6 °F 32.0 °F 75% 30.28 in 10.0 mi NNW 19.6 mph 23.0 mph N/A   Unknown
10:55 AM 41.0 °F 33.1 °F 32.0 °F 70% 30.28 in 10.0 mi NNW 15.0 mph 23.0 mph N/A   Unknown
11:15 AM 42.8 °F 35.4 °F 32.0 °F 66% 30.28 in 10.0 mi NNW 15.0 mph 25.3 mph N/A   Unknown
11:35 AM 44.6 °F 35.7 °F 32.0 °F 61% 30.27 in 10.0 mi NNW 24.2 mph - N/A   Unknown
11:55 AM 44.6 °F 35.9 °F 32.0 °F 61% 30.27 in 10.0 mi NNW 23.0 mph 28.8 mph N/A   Clear
12:15 PM 46.4 °F 40.7 °F 32.0 °F 57% 30.26 in 10.0 mi NNW 12.7 mph 23.0 mph N/A   Unknown
12:35 PM 46.4 °F 40.1 °F 30.2 °F 53% 30.26 in 10.0 mi North 15.0 mph 27.6 mph N/A   Clear
12:55 PM 48.2 °F - 28.4 °F 46% 30.25 in 10.0 mi North 18.4 mph 25.3 mph N/A   Clear
1:15 PM 48.2 °F - 28.4 °F 46% 30.24 in 10.0 mi North 20.7 mph 27.6 mph N/A   Unknown
1:35 PM 48.2 °F - 28.4 °F 46% 30.23 in 10.0 mi North 21.9 mph 31.1 mph N/A   Unknown
1:55 PM 50.0 °F - 28.4 °F 43% 30.24 in 10.0 mi NNW 24.2 mph 31.1 mph N/A   Unknown
2:15 PM 50.0 °F - 26.6 °F 40% 30.23 in 10.0 mi NNW 20.7 mph 29.9 mph N/A   Unknown
2:35 PM 50.0 °F - 26.6 °F 40% 30.24 in 10.0 mi NNW 20.7 mph 32.2 mph N/A   Unknown
2:55 PM 50.0 °F - 26.6 °F 40% 30.24 in 10.0 mi North 21.9 mph 31.1 mph N/A   Unknown
3:15 PM 50.0 °F - 26.6 °F 40% 30.25 in 10.0 mi NNW 21.9 mph 32.2 mph N/A   Unknown
3:35 PM 50.0 °F - 26.6 °F 40% 30.24 in 10.0 mi North 23.0 mph 33.4 mph N/A   Clear
3:55 PM 50.0 °F - 26.6 °F 40% 30.24 in 10.0 mi North 21.9 mph 32.2 mph N/A   Clear
4:15 PM 50.0 °F - 24.8 °F 37% 30.25 in 10.0 mi NNW 27.6 mph 32.2 mph N/A   Clear
4:35 PM 50.0 °F - 24.8 °F 37% 30.26 in 10.0 mi North 16.1 mph 26.5 mph N/A   Clear
4:55 PM 48.2 °F - 23.0 °F 37% 30.26 in 10.0 mi NNW 23.0 mph 34.5 mph N/A   Clear
5:15 PM 48.2 °F - 23.0 °F 37% 30.27 in 10.0 mi NNW 20.7 mph 29.9 mph N/A   Clear
5:35 PM 46.4 °F 39.8 °F 23.0 °F 40% 30.29 in 10.0 mi North 16.1 mph 23.0 mph N/A   Clear
5:55 PM 46.4 °F 40.1 °F 23.0 °F 40% 30.30 in 10.0 mi North 15.0 mph 27.6 mph N/A   Clear
6:15 PM 44.6 °F 38.8 °F 23.0 °F 43% 30.31 in 10.0 mi NNW 11.5 mph - N/A   Clear
6:35 PM 44.6 °F 38.8 °F 23.0 °F 43% 30.32 in 10.0 mi North 11.5 mph 24.2 mph N/A   Clear
6:55 PM 44.6 °F 38.8 °F 23.0 °F 43% 30.33 in 10.0 mi NNW 11.5 mph 16.1 mph N/A   Clear
7:15 PM 42.8 °F 38.0 °F 23.0 °F 46% 30.34 in 10.0 mi North 8.1 mph - N/A   Clear
7:35 PM 41.0 °F 35.2 °F 24.8 °F 53% 30.35 in 10.0 mi NNW 9.2 mph - N/A   Clear
7:55 PM 41.0 °F 37.1 °F 24.8 °F 53% 30.35 in 10.0 mi NNW 5.8 mph - N/A   Clear
8:15 PM 39.2 °F 37.0 °F 24.8 °F 56% 30.36 in 10.0 mi WNW 3.5 mph - N/A   Clear
8:35 PM 39.2 °F 35.9 °F 26.6 °F 61% 30.37 in 10.0 mi WNW 4.6 mph - N/A   Clear
8:55 PM 39.2 °F 35.9 °F 26.6 °F 61% 30.37 in 10.0 mi NW 4.6 mph - N/A   Clear
9:15 PM 39.2 °F 37.0 °F 26.6 °F 61% 30.37 in 10.0 mi NNW 3.5 mph - N/A   Clear
9:35 PM 39.2 °F 35.9 °F 26.6 °F 61% 30.38 in 10.0 mi NW 4.6 mph - N/A   Clear
9:55 PM 37.4 °F 32.1 °F 26.6 °F 65% 30.38 in 10.0 mi NNW 6.9 mph - N/A   Clear
10:15 PM 37.4 °F 33.8 °F 28.4 °F 70% 30.38 in 10.0 mi North 4.6 mph - N/A   Clear
10:35 PM 37.4 °F - 26.6 °F 65% 30.38 in 10.0 mi Calm Calm - N/A   Clear
10:55 PM 35.6 °F - 28.4 °F 75% 30.39 in 10.0 mi Calm Calm - N/A   Clear
11:15 PM 37.4 °F 33.8 °F 26.6 °F 65% 30.39 in 10.0 mi NNW 4.6 mph - N/A   Clear
11:35 PM 35.6 °F 29.9 °F 26.6 °F 70% 30.39 in 10.0 mi NNW 6.9 mph - N/A   Clear
11:55 PM 35.6 °F 32.8 °F 26.6 °F 70% 30.40 in 10.0 mi NW 3.5 mph - N/A   Clear